Find GPS IIR-18(M)

NORAD ID: 32384 Int'l Des: 2007-062 Owner: AFSMC Country: US Constellation: GPS operational
MEOCIRCULARGNSS

リアルタイム位置

3D地球を読み込み中...

GPS IIR-18(M)について

説明を読み込み中...

次回通過

Passes for default location (London). Set your location on the main map for personalized predictions.

高度履歴

Loading altitude history...

軌道要素

1 32384U 07062A 26103.96977640 -.00000002 00000-0 00000-0 0 9998
2 32384 55.0853 276.7324 0034182 161.7497 11.4086 2.00556046134222
Epoch: Apr 13, 2026 • Age: 26 hours

現在のステータス

高度 20189.4 km
速度 3.87 km/s
衛星直下点 -48.09°S, 79.33°W
打ち上げ日 Dec 20, 2007
運用期間 18.3 years
タイプ navigation

技術仕様

分類 Payload
質量 1077.00 kg
乾燥質量 910.00 kg
総質量 2032.00 kg
長さ 1.50 m
直径 1.90 m
スパン 19.30 m
形状 Box + 2 Pan
製造者 LMVF
バスタイプ Series 4000
フェーズステータス In Orbit
所有者/国 AFSMC/US

Most Searched